RH
65 70 84 97 97 97 97 98 99 99 99 99 99 98 99 99 99 99 99 99 99 99 95 96 96 89 82 81 78 72 64 57 48 38 38 32 26 25 30 51 46 39 37 39 41 48 52
87 94 96 95 97 98 99 100 100 100 100 100 100 99 100 99 99 100 99 100 99 99 98 99 100 98 94 94 84 78 71 63 53 42 40 30 25 23 25 37 37 33 31 32 31 31 34
69 83 89 93 84 92 99 95 86 94 70 99 100 84 67 80 97 100 100 100 100 99 100 98 98 98 97 93 91 87 80 81 82 45 39 32 26 24 39 49 42 38 31 26 21 21 20
78 70 65 46 76 83 93 89 93 81 100 99 100 88 65 50 62 89 98 99 100 100 100 100 100 100 99 99 99 100 96 99 66 45 38 32 26 26 30 42 46 34 28 15 14 15 14
22 21 60 100 100 100 90 100 95 63 64 66 75 93 70 69 59 80 86 100 100 100 100 100 100 99 98 100 93 97 96 88 68 52 40 34 29 43 42 41 36 30 16 15 20 17 15
14 29 94 100 87 78 100 56 32 51 81 100 100 100 100 100 100 74 100 100 100 98 100 94 100 100 100 100 99 100 90 84 73 53 44 34 42 56 49 42 27 18 17 20 25 28 39
12 44 75 58 100 98 82 47 41 68 95 100 100 100 100 100 100 98 96 100 100 100 100 100 100 86 99 100 100 100 96 99 54 47 42 34 51 53 44 26 30 30 22 28 30 45 51
12 28 60 88 100 100 80 72 58 82 74 76 96 91 100 87 92 76 94 100 100 100 100 100 100 100 100 100 99 89 59 50 47 46 47 66 61 37 22 28 33 29 28 34 49 91 57
10 13 51 99 100 100 98 96 60 73 75 90 82 83 82 78 84 73 93 100 99 99 100 100 100 100 99 89 63 50 51 58 68 80 76 49 24 24 37 40 37 29 31 57 67 61 72
19 20 13 41 93 97 100 96 64 56 64 82 71 76 52 74 84 100 92 90 89 97 99 100 100 97 58 30 38 50 80 100 89 64 32 18 41 36 46 57 44 38 54 64 49 66 81
25 25 24 14 19 77 97 83 78 53 56 48 48 59 63 65 60 100 100 100 98 94 98 99 95 71 49 67 97 100 99 71 43 23 25 45 49 46 55 58 56 62 72 65 82 91 100
25 28 30 26 16 10 50 68 62 64 54 59 51 45 60 62 79 80 95 86 87 100 66 52 41 78 96 68 34 32 38 35 41 44 48 45 49 61 58 58 79 75 83 98 100 98 100
26 31 40 37 32 23 11 38 68 49 54 63 50 57 58 72 94 86 83 97 100 97 94 93 100 44 29 28 30 44 53 59 51 46 46 46 47 53 63 74 98 99 98 100 100 100 96
25 29 43 59 44 42 25 10 15 28 43 38 44 53 59 89 80 80 97 100 92 86 100 94 33 33 46 46 44 48 47 47 55 62 72 55 66 76 79 93 99 100 100 100 100 95 99
19 24 40 54 60 60 54 27 12 23 27 30 35 32 34 40 73 65 68 90 87 100 98 47 68 64 63 78 67 41 61 74 87 99 79 74 78 64 87 94 99 100 100 100 100 100 100
18 18 25 44 52 64 73 80 25 12 16 21 20 19 33 48 37 51 70 60 87 97 39 50 84 96 89 85 64 72 71 70 92 98 100 96 88 86 88 90 86 99 100 100 96 99 98
16 18 18 22 36 29 37 55 95 58 18 23 35 37 27 32 23 52 75 72 93 78 49 71 91 98 84 68 56 87 96 100 100 100 100 89 70 70 85 69 76 99 98 99 97 98 98
12 17 12 12 12 18 14 13 23 72 98 99 97 90 72 70 64 81 80 92 53 47 76 89 61 57 64 56 73 93 100 100 92 86 95 87 79 77 69 55 71 92 98 99 98 97 94
14 11 11 8 6 8 8 8 9 14 22 84 60 71 47 31 74 84 56 37 54 78 81 58 42 38 43 68 97 100 100 100 99 100 100 89 82 77 47 46 47 59 78 85 91 98 89
18 15 10 6 5 5 5 6 6 7 9 13 20 18 22 27 47 29 34 57 54 40 46 39 27 48 61 81 92 86 98 78 81 87 85 97 74 59 50 44 44 46 59 52 63 75 72
8 19 12 5 4 5 5 6 6 6 7 7 10 10 13 19 23 25 34 42 38 31 36 40 46 56 56 63 61 50 57 88 100 75 62 66 76 78 57 49 39 33 36 42 44 54 82
4 14 16 9 5 5 5 6 6 8 8 8 7 7 8 10 15 17 20 25 25 24 23 29 41 45 38 38 38 33 41 43 49 67 75 71 73 61 54 43 37 45 51 43 43 38 56
2 7 14 12 8 5 5 6 6 8 9 10 9 8 7 7 7 10 12 15 16 24 27 32 38 33 32 32 30 30 30 32 31 31 35 38 44 52 53 62 60 56 56 54 54 53 52
4 3 11 12 8 6 5 5 5 6 8 9 10 11 10 9 8 7 8 10 12 14 18 24 27 26 28 26 24 24 22 23 28 31 28 27 30 30 26 26 32 34 34 34 35 33 32
10 3 4 13 10 7 6 4 4 5 6 8 11 12 13 12 12 10 9 8 8 11 14 15 17 20 22 22 22 20 23 18 18 20 24 22 23 26 22 22 20 18 18 20 20 20 20
17 6 3 9 14 11 6 6 4 4 5 6 8 10 14 14 14 13 13 12 11 10 8 8 9 12 12 12 13 14 13 16 13 11 13 11 11 14 17 18 15 14 12 13 13 13 14
18 10 4 3 12 17 14 8 6 4 4 5 6 7 10 13 14 15 16 15 14 13 13 13 12 11 10 10 9 8 8 7 7 7 8 8 8 8 8 8 9 9 10 10 8 7 7
14 13 6 4 3 7 16 12 9 7 4 4 5 6 7 8 11 12 14 16 16 16 16 16 16 14 14 13 13 12 12 12 11 11 10 9 9 8 8 8 9 8 8 8 10 10 11
11 12 8 6 4 3 10 21 16 11 6 4 4 5 5 6 7 9 12 13 16 17 18 18 20 20 18 18 16 15 14 13 13 12 12 12 11 11 10 10 10 10 10 10 10 10 9
Wind_Speed
63 67 69 70 67 65 62 59 59 60 63 65 66 65 64 62 61 59 58 58 57 56 55 53 51 51 50 48 46 44 43 41 42 43 42 41 41 40 40 37 37 37 37 38 39 42 47
71 75 76 74 69 66 65 62 62 61 61 64 65 63 61 61 60 58 55 54 52 52 52 50 45 50 50 49 45 40 41 39 39 39 39 38 37 38 39 39 36 36 37 36 39 42 45
78 76 73 73 71 63 57 58 59 62 60 58 58 55 59 58 57 56 53 50 46 44 43 44 45 46 45 46 42 42 40 41 39 37 36 34 34 35 36 34 32 32 34 38 36 39 44
77 74 75 73 63 58 55 67 68 65 63 57 55 55 50 52 54 45 43 42 38 33 34 31 37 39 38 30 29 35 37 34 33 35 33 32 33 36 38 37 35 34 37 37 36 36 37
77 74 63 51 58 65 71 65 65 63 67 68 62 45 40 36 30 32 33 27 29 30 29 32 34 29 31 37 34 33 31 31 31 32 30 30 29 28 30 33 35 36 36 32 28 29 29
71 68 58 61 68 58 59 49 56 55 42 31 15 19 22 26 29 26 17 21 21 26 28 31 36 34 28 27 29 27 27 26 27 28 27 27 27 28 29 31 29 31 30 24 19 23 13
72 71 62 57 51 61 44 42 47 38 25 22 5 13 16 12 16 24 22 25 21 16 23 24 23 24 25 23 20 20 22 22 22 22 24 27 28 29 27 25 20 24 23 17 12 10 11
67 67 65 58 51 46 41 40 35 32 17 16 7 9 11 19 19 24 19 23 31 20 16 17 25 20 23 30 21 16 18 19 19 21 25 27 26 24 21 15 14 20 14 11 9 8 7
69 63 60 59 52 41 43 37 26 25 20 11 4 1 1 5 8 16 21 25 26 29 24 20 16 18 15 15 12 16 18 18 20 23 26 21 21 10 8 12 15 11 11 8 6 9 4
76 80 70 54 48 43 43 35 18 21 12 12 8 5 7 6 7 18 19 20 26 26 26 23 17 14 11 11 14 17 17 18 20 19 16 13 12 11 10 10 8 9 9 8 7 3 7
76 80 84 80 54 43 35 24 14 16 12 16 8 11 4 5 11 19 26 27 21 21 16 15 17 12 11 11 13 16 16 16 13 9 9 16 14 9 9 11 10 7 4 2 3 4 14
75 77 80 82 82 58 33 23 21 13 16 19 23 20 12 14 24 26 26 33 29 25 19 16 14 10 8 9 11 12 9 7 9 12 20 15 9 8 11 12 10 12 12 9 9 9 7
74 73 77 78 80 82 63 33 21 19 20 19 21 22 22 26 32 33 35 36 20 21 20 15 14 15 11 8 10 14 15 13 8 15 14 7 7 10 11 10 13 10 8 12 17 7 1
74 70 73 76 73 75 76 67 44 27 27 27 25 27 29 34 42 39 30 19 24 23 17 23 19 15 15 15 14 12 11 12 15 12 8 8 11 14 13 20 11 13 8 13 18 13 9
72 72 72 73 70 69 70 70 66 54 40 32 35 41 40 43 35 28 28 23 25 18 23 25 22 18 16 15 17 18 19 17 14 10 13 12 10 12 19 13 16 15 12 14 12 18 28
70 75 73 72 68 66 65 64 60 57 52 47 47 45 43 35 32 27 24 23 21 26 25 25 21 21 20 20 19 19 18 16 16 14 13 15 16 18 16 18 17 14 22 23 26 29 33
63 69 72 71 70 64 64 61 56 50 45 43 40 34 29 26 25 25 18 21 25 31 25 22 22 22 24 22 20 18 22 21 19 12 15 13 17 17 19 15 18 20 24 26 27 28 26
58 62 67 68 68 67 65 66 56 48 42 36 33 28 26 23 17 14 11 17 30 24 23 20 23 25 22 21 17 17 20 18 14 10 14 16 18 21 17 18 21 25 23 22 21 22 21
50 55 60 61 63 65 67 68 68 59 48 38 33 24 22 21 22 25 30 29 26 23 23 24 24 23 20 16 21 24 20 16 16 19 20 18 18 21 18 18 20 21 21 21 21 24 20
40 47 51 55 55 58 62 65 68 67 62 53 41 35 29 29 31 30 32 29 27 26 27 27 24 22 20 24 26 24 23 19 20 19 19 21 19 19 21 27 24 21 22 23 23 24 24
34 37 42 44 46 49 54 57 60 63 62 61 51 43 36 31 32 31 30 30 28 30 28 27 23 22 24 25 24 23 25 24 18 18 18 15 17 17 20 20 20 19 18 20 22 22 16
30 30 32 35 37 40 45 49 53 56 57 59 58 50 43 31 29 29 28 28 27 24 21 19 20 24 23 22 21 23 23 20 19 17 14 14 13 12 12 14 14 15 17 17 17 17 18
31 25 25 27 30 33 37 40 43 47 49 51 53 53 53 48 37 26 24 23 21 22 22 22 23 21 21 22 21 21 23 20 17 14 11 9 8 8 9 8 9 9 10 10 9 10 13
31 26 22 21 23 23 26 29 33 37 41 43 45 47 47 47 47 41 30 22 19 19 17 17 18 17 16 17 16 16 13 13 14 13 12 9 8 8 6 7 6 7 5 7 6 5 6
31 28 22 19 18 20 18 21 25 27 32 37 39 39 40 40 41 41 40 38 30 23 16 15 13 14 9 7 8 5 5 3 4 8 10 11 11 10 9 8 8 7 6 6 7 6 6
31 27 23 17 17 14 15 15 17 19 22 27 31 33 34 35 36 36 34 34 34 33 30 25 20 15 12 8 6 5 4 4 2 6 10 12 11 11 10 9 8 7 6 6 5 6 6
26 30 25 18 17 16 14 12 12 12 14 17 19 23 27 28 30 31 31 29 29 28 27 27 26 25 24 24 23 22 20 21 19 19 18 15 15 15 15 13 10 12 14 12 9 10 12
26 26 25 23 17 18 18 15 12 6 4 8 11 12 16 20 22 23 24 25 24 24 23 21 21 20 19 19 18 17 18 17 17 16 15 15 16 15 15 14 14 12 12 11 10 10 9
27 23 26 25 27 17 16 18 17 11 5 4 3 5 8 10 14 17 19 18 19 20 20 18 17 15 14 13 13 13 12 12 12 11 11 10 10 10 10 10 11 10 9 8 7 7 7
Wind_Direction
313 310 308 307 307 304 299 293 288 283 279 276 274 271 268 265 263 262 261 260 260 257 253 256 259 261 261 264 266 266 265 264 265 263 265 266 266 268 265 271 275 276 275 271 266 260 260
320 318 317 315 312 305 299 296 293 288 286 285 282 278 276 271 265 261 260 259 258 256 253 253 256 259 261 262 262 261 262 261 260 261 264 265 268 268 266 268 273 276 282 276 267 261 258
326 322 319 314 313 310 307 306 300 296 295 285 278 279 281 281 272 264 263 263 261 255 251 250 258 259 258 262 258 253 254 257 257 261 263 267 269 266 260 269 276 288 287 277 266 260 255
329 326 322 322 318 316 310 311 304 305 296 284 280 285 284 284 276 268 263 261 259 249 244 250 235 245 246 253 234 245 254 247 252 257 261 264 266 264 264 274 287 286 281 274 270 260 257
333 331 333 318 312 309 314 308 306 302 290 286 289 293 287 272 270 255 256 255 245 243 239 221 230 237 241 234 245 254 244 241 250 258 261 266 272 273 273 275 279 281 272 270 269 265 257
337 339 331 317 314 323 316 325 326 319 318 305 253 253 255 259 248 254 228 207 228 229 228 235 234 233 226 242 246 243 243 247 253 256 265 268 272 277 272 271 277 272 272 278 257 263 281
343 341 325 327 329 329 327 328 334 330 338 351 270 233 264 256 232 240 234 188 175 209 218 224 223 220 209 228 223 229 235 248 256 263 269 272 271 269 275 277 263 271 271 267 244 262 304
356 343 338 335 337 335 333 336 337 353 351 344 301 267 275 242 273 256 219 200 183 173 202 195 216 222 221 229 239 233 248 253 262 269 269 268 269 273 272 258 258 262 252 239 238 278 312
20 9 346 337 336 340 336 337 335 347 3 15 13 348 250 195 211 227 204 186 175 178 176 172 176 188 198 203 229 238 243 255 261 263 264 272 270 242 223 251 257 228 205 209 209 259 266
24 26 20 355 343 346 348 342 332 350 13 25 79 45 120 118 127 128 143 173 175 189 192 178 179 180 177 212 227 240 251 255 257 262 270 256 172 178 211 235 222 175 184 198 240 286 273
26 26 28 27 13 352 3 16 11 17 26 36 49 83 83 123 151 137 116 123 124 167 168 170 160 174 195 219 235 247 249 252 256 253 194 161 171 195 217 205 158 148 155 161 303 313 331
22 24 28 29 31 33 30 25 23 43 43 65 68 47 80 122 127 127 119 110 118 119 127 146 158 175 188 198 222 237 233 197 159 161 158 170 179 177 179 163 141 133 121 74 35 8 358
17 23 28 28 33 35 44 40 33 77 86 89 66 46 84 117 120 120 116 114 113 123 129 139 152 139 134 122 122 125 131 145 154 159 158 166 165 173 170 158 132 95 65 34 47 68 329
18 22 27 27 31 35 40 54 58 86 94 91 67 79 95 104 112 111 102 112 125 130 124 126 126 124 114 106 107 119 124 118 124 128 128 129 147 153 161 134 98 98 70 32 64 106 119
18 18 25 30 31 34 38 46 59 77 86 90 92 99 100 107 110 108 122 131 117 126 125 116 109 115 116 106 108 109 113 116 121 102 110 127 153 162 144 124 100 88 66 35 99 95 103
15 18 22 31 34 36 37 42 53 65 81 95 102 107 113 112 114 117 110 105 110 120 121 119 111 107 112 103 111 108 102 111 111 89 103 106 123 132 131 110 88 70 76 90 110 103 99
14 17 20 28 35 39 43 41 47 58 67 74 81 81 83 83 96 98 98 90 111 116 118 117 108 108 113 107 100 102 104 90 81 83 97 108 128 136 120 105 91 86 90 106 113 111 119
11 14 19 25 32 37 43 46 50 52 56 60 61 66 67 67 68 71 74 93 115 112 110 112 102 97 98 98 110 105 68 68 84 90 100 110 119 132 120 106 92 88 91 95 106 103 117
6 11 17 26 31 36 38 44 45 51 53 56 57 62 54 59 69 85 99 108 104 106 109 107 103 103 102 96 91 78 87 96 103 98 105 113 119 134 117 110 106 102 102 100 97 101 112
7 9 16 23 33 38 40 41 44 45 47 51 53 58 64 76 90 95 99 95 94 97 99 103 102 94 97 98 94 91 95 103 103 104 107 109 121 130 122 114 115 116 110 108 107 105 107
5 12 11 25 32 39 40 43 44 46 46 49 54 59 68 88 98 97 90 90 91 88 95 102 93 90 96 94 90 84 82 92 109 109 116 119 123 128 130 129 129 128 125 121 120 123 117
4 7 12 15 32 36 41 43 44 46 47 50 50 56 62 76 94 92 87 87 84 93 101 99 97 101 98 97 91 87 88 91 94 104 109 136 139 150 148 148 143 140 142 140 142 138 139
6 0 5 7 24 36 36 39 42 46 48 49 51 53 55 60 66 76 85 84 83 93 92 103 112 102 105 105 99 91 89 89 94 101 104 113 121 141 155 159 167 158 156 158 153 158 162
8 2 353 359 7 31 34 38 40 44 47 49 51 53 52 55 57 62 69 76 82 88 97 105 114 108 110 115 115 107 96 95 102 102 108 121 136 156 159 179 180 179 199 187 185 186 184
2 4 349 347 352 2 24 35 42 41 42 48 48 50 55 55 57 57 57 61 70 77 85 96 110 132 129 147 140 126 125 50 113 148 147 151 155 158 161 168 171 173 178 177 181 183 179
343 358 356 339 328 336 350 21 34 45 44 42 48 49 49 54 57 58 57 57 58 61 65 68 73 76 73 86 93 88 85 72 91 164 164 159 158 163 176 185 177 167 156 147 143 159 155
332 342 358 339 315 317 328 344 18 28 37 44 41 43 50 50 55 57 57 58 59 58 59 59 62 64 65 65 66 70 75 78 87 92 99 113 116 121 119 113 114 129 132 109 97 103 107
311 329 341 349 327 308 311 312 322 357 24 39 41 34 35 48 49 50 56 59 56 57 61 59 57 59 59 60 61 63 66 69 72 74 76 78 81 82 82 84 87 81 88 89 85 72 67
294 311 326 341 346 328 302 289 287 288 292 299 347 355 6 23 39 43 42 47 55 58 55 55 55 54 56 57 58 58 59 64 70 75 77 82 86 89 95 98 100 104 104 96 92 89 80